Regional Weather Roundup
Issued by NWS

Home | Current Version | Previous Version | Graphics & Text | Print | Product List | Glossary On
Versions: 1 2 3 4 5 6 7 8 9 10 11 12 13 14 15 16 17 18 19 20 21 22 23 24 25 26 27 28 29 30 31 32 33 34 35 36 37 38 39 40 41 42 43 44 45 46 47 48 49 50
000
ASUS43 KMPX 282210
RWRMN
WEATHER ROUNDUP FOR MINNESOTA
NATIONAL WEATHER SERVICE TWIN CITIES/CHANHASSEN MN
400 PM CST SAT FEB 28 2015


NOTE: "FAIR" INDICATES FEW OR NO CLOUDS BELOW 12,000 FEET WITH NO
SIGNIFICANT WEATHER AND/OR OBSTRUCTIONS TO VISIBILITY. N/A MEANS
CURRENT SKY AND/OR WEATHER CONDITIONS ARE NOT AVAILABLE.

MNZ060>063-068>070-282300-
   Twin Cities Metro

CITY           SKY/WX    TMP DP  RH WIND       PRES   REMARKS
TWIN CITIES    MOSUNNY   18   2  49 S13       30.38F WCI   5
ST PAUL        SUNNY     19   4  51 S15G25    30.41F WCI   5
CRYSTAL        CLOUDY    21   5  50 S12       30.36F WCI   9
BLAINE         MOSUNNY   21   7  53 S16       30.36F WCI   7
LAKEVILLE      MOSUNNY   14   3  62 S14       30.39F WCI  -1
EDEN PRAIRIE   MOSUNNY   19   4  51 S15       30.36F WCI   5
SOUTH ST PAUL  SUNNY     19   4  53 S10       30.40F WCI   7
LAKE ELMO      FAIR      19   7  58 S17       30.40F WCI   4
$$
MNZ001>005-007-008-013>017-022>024-027-028-282300-
   Northwest Minnesota

CITY           SKY/WX    TMP DP  RH WIND       PRES   REMARKS
BEMIDJI        PTSUNNY   23   6  48 S14G21    30.13F WCI  10
HALLOCK        CLOUDY    21  16  79 S17       30.09S WCI   7
ROSEAU         PTSUNNY   23  16  74 S15       30.09S WCI  10
WARROAD        PTSUNNY   23  12  63 S13G20    30.09F WCI  11
THIEF RVR FALL CLOUDY    23  19  86 S20G25    30.10F WCI   8
CROOKSTON      FLURRIES  25  18  74 SW25      30.13S WCI   9
FOSSTON        LGT SNOW  21  16  79 S23G29    30.13S WCI   5
DETROIT LAKES  MOSUNNY   23  16  74 SW21G26   30.15F WCI   8
MOORHEAD       CLOUDY    27  14  59 S20       30.16F WCI  13
PARK RAPIDS    CLOUDY    22   9  57 S17G29    30.16F WCI   8
MAHNOMEN       CLOUDY    22  15  74 S26G32    30.14S WCI   5
$$
MNZ006-009>011-018-025>026-282300-
   North Central Minnesota

CITY           SKY/WX    TMP DP  RH WIND       PRES   REMARKS
BAUDETTE       CLOUDY    24   6  46 S14       30.09F WCI  12
FLAG ISLAND    PTSUNNY   18  10  73 S10       30.08F WCI   6
INTL FALLS     CLOUDY    24   0  35 SW17G26   30.14F WCI  11
WASKISH        PTSUNNY   27   3  36 S9G21     30.13F WCI  17
BIG FORK       MOSUNNY   23   3  42 S15       30.17F WCI  10
LONGVILLE      PTSUNNY   23   3  42 S13G18    30.19F WCI  11
GRAND RAPIDS   CLOUDY    21   1  42 S15G24    30.20F WCI   8
CRANE LAKE     SUNNY     23  -4  30 S9G20     30.21F WCI  13
ORR            SUNNY     25  -6  26 SW10G20   30.16F WCI  15
COOK           SUNNY     23   0  36 SW12G23   30.20F WCI  12
WALKER         CLOUDY    22   2  42 SW14G22   30.16F WCI  10
$$
MNZ012-019>021-037-282300-
   Northeast Minnesota

CITY           SKY/WX    TMP DP  RH WIND       PRES   REMARKS
DULUTH         SUNNY     21   1  41 SW16      30.25F WCI   7
ELY            SUNNY     21  -2  35 SW14      30.21F WCI   8
HIBBING        SUNNY     23  -2  33 S12G20    30.21F WCI  12
EVELETH        SUNNY     23   1  39 S13G20    30.22F WCI  11
DULUTH HARBOR  SUNNY     23   3  42 S17G24    30.33F WCI   9
TWO HARBORS    SUNNY     25   7  46 S14G23    30.27F WCI  13
SILVER BAY     SUNNY     23   5  46 S14G22    30.26F WCI  11
GRAND MARAIS     N/A     22  12  65 SW21      30.33F WCI   6
G MARAIS ARPRT MOSUNNY   16   3  57 S15G24    30.23F WCI   1
$$
MNZ029>031-032-039>041-046>048-054>057-064-282300-
   West Central Minnesota

CITY           SKY/WX    TMP DP  RH WIND       PRES   REMARKS
FERGUS FALLS   PTSUNNY   21  10  63 S18G26    30.22F WCI   6
WHEATON        CLOUDY    21  12  68 S18       30.21F WCI   6
MORRIS         CLOUDY    23  12  63 S17G28    30.21F WCI   9
ALEXANDRIA     CLOUDY    20  10  65 S18       30.22F WCI   5
ELBOW LAKE     CLOUDY    21  13  70 S22       30.20F WCI   5
WADENA         CLOUDY    19   9  63 S15G22    30.19S WCI   5
APPLETON       CLOUDY    27  12  54 S16       30.23F WCI  14
BENSON         FLURRIES  23  12  63 SW16G22   30.25F WCI  10
ORTONVILLE     PTSUNNY   25  12  58 S14G22    30.21S WCI  13
MADISON        CLOUDY    25  14  63 S18       30.24F WCI  11
WILLMAR        FAIR      21  10  63 S6        30.29F WCI  14
$$
MNZ033>034-036-042>043-049>051-058-059-282300-
   Central Minnesota

CITY           SKY/WX    TMP DP  RH WIND       PRES   REMARKS
ST CLOUD       PTSUNNY   20   5  52 S15G25    30.30F WCI   6
SAUK CENTRE    CLOUDY    20  10  63 S18G24    30.26S WCI   5
PAYNESVILLE    CLOUDY    17   8  67 SE13G21   30.29S WCI   4
AITKIN         MOSUNNY   23   1  39 S13       30.24F WCI  11
PINE RIVER     CLOUDY    21   7  53 S13G22    30.23F WCI   9
BRAINERD       CLOUDY    20   5  52 S18G25    30.24F WCI   5
STAPLES        CLOUDY    21   9  58 S16G23    30.22F WCI   7
LONG PRAIRIE   CLOUDY    21  12  68 S16G24    30.24F WCI   7
LITTLE FALLS   MOSUNNY   21   7  53 S14G21    30.28S WCI   8
LITCHFIELD     MOSUNNY   21   9  58 S7        30.30F WCI  13
BUFFALO        FAIR      21   5  49 S6G17     30.35F WCI  14
MAPLE LAKE     SUNNY     22   8  54 S14G20    30.33F WCI   9
$$
MNZ037-044-045-052-053-282300-
   East Central Minnesota

CITY           SKY/WX    TMP DP  RH WIND       PRES   REMARKS
PRINCETON      PTSUNNY   21   7  53 S15       30.32F WCI   8
MORA           SUNNY     21   3  45 S14       30.34S WCI   8
CAMBRIDGE      MOSUNNY   23   9  54 S9G17     30.32F WCI  13
RUSH CITY      PTSUNNY   21   4  48 S15       30.35F WCI   8
MOOSE LAKE     SUNNY     23   3  42 S10G17    30.28F WCI  12
HINCKLEY       MOCLDY    21   5  49 S13       30.33S WCI   9
CLOQUET        SUNNY     19   0  42 S16       30.26F WCI   5
MCGREGOR       MOSUNNY   23   3  42 S15       30.26F WCI  10
$$
MNZ071>073-080-081-089-090-097-098-282300-
   Southwest Minnesota

CITY           SKY/WX    TMP DP  RH WIND       PRES   REMARKS
MONTEVIDEO     CLOUDY    23  12  63 SW16      30.27F WCI  10
GRANITE FALLS  CLOUDY    22  15  74 S14       30.30S WCI   9
CANBY          FLURRIES  23  15  71 S10G17    30.24F WCI  12
MARSHALL       PTSUNNY   21  12  68 S17G23    30.28F WCI   7
REDWOOD FALLS  PTSUNNY   22  10  60 S22       30.30F WCI   6
OLIVIA         PTSUNNY   21  10  63 S16       30.30S WCI   7
PIPESTONE      FLURRIES  21  16  79 SW18      30.21S WCI   6
WINDOM         CLOUDY    19  10  68 S14G23    30.29S WCI   6
WORTHINGTON    CLOUDY    28  10  47 S16G22    30.29S WCI  17
JACKSON        PTSUNNY   21  10  63 S17       30.31S WCI   7
TRACY          LGT SNOW  22  15  74 S10G20    30.27S WCI  11
SLAYTON        CLOUDY    20  11  68 S18G24    30.25F WCI   5
$$
MNZ065>067-074>077-082>085-091>093-282300-
   South Central Minnesota

CITY           SKY/WX    TMP DP  RH WIND       PRES   REMARKS
MANKATO        CLOUDY    18 -11  27 S16       30.37S WCI   3
NEW ULM        PTSUNNY   19  10  68 S16       30.33S WCI   5
ST JAMES       MOSUNNY   21  10  63 S16G23    30.34F WCI   7
FAIRMONT       CLOUDY    19   9  63 S18       30.33S WCI   4
GLENCOE        CLOUDY    21  10  62 S13G18    30.33F WCI   8
FARIBAULT      CLOUDY    16   3  57 S14       30.39F WCI   1
OWATONNA       PTSUNNY   14   3  62 SE13      30.38F WCI   0
WASECA         CLOUDY    18   7  62 SE15      30.39F WCI   3
ALBERT LEA     PTSUNNY   12   3  67 S15G21    30.38F WCI  -4
$$
MNZ078>079-086>088-094>096-282300-
   Southeast Minnesota

CITY           SKY/WX    TMP DP  RH WIND       PRES   REMARKS
ROCHESTER      PTSUNNY   11   0  61 S16       30.40F WCI  -6
RED WING       SUNNY     18   0  45 S9        30.43F WCI   6
STANTON        MOSUNNY   16   4  59 S12       30.40F WCI   3
DODGE CENTER   MOSUNNY   12   3  67 SE14      30.38F WCI  -3
WINONA         SUNNY     19   1  45 SW5       30.48F WCI  13
AUSTIN         MOSUNNY   12   1  62 S9        30.39F WCI   0
PRESTON        CLOUDY    11  -1  58 S12       30.42F WCI  -3
$$
ABBREVIATIONS USED IN REMARKS
   TC - TEMPERATURES IN CELSIUS
  WCI - WIND CHILL INDEX
   HX - HEAT INDEX
  VSB - VISIBILITY
$$



USA.gov is the U.S. government's official web portal to all federal, state and local government web resources and services.